[Iaude] MPEC M72: 2019 UV173 [a=81.20,e=0.54,i=26.4,H=9.57]
    mpec at cfa.harvard.edu 
    mpec at cfa.harvard.edu
       
    Wed Jun 26 23:39:12 EDT 2024
    
    
  
M.P.E.C. 2024-M72                                 Issued 2024 June 27, 03:37 UT
     The Minor Planet Electronic Circulars contain information on unusual
         minor planets, routine data on comets and natural satellites,
         and occasional editorial announcements.  They are published
    on behalf of Division F of the International Astronomical Union by the
          Minor Planet Center, Smithsonian Astrophysical Observatory,
                          Cambridge, MA 02138, U.S.A.
			  
             Prepared using the Tamkin Foundation Computer Network
                              MPC at CFA.HARVARD.EDU
            URL https://www.minorplanetcenter.net/    ISSN 1523-6714
                                   2019 UV173                                   
Additional Observations:
     K19UH3V 1C2015 10 10.56404501 55 36.74 -03 45 18.9                WEM072T09
     K19UH3V 1C2015 10 14.56582701 55 18.44 -03 47 45.1                WEM072T09
     K19UH3V 1C2016 09 27.42417902 04 00.60 -03 40 02.1                WEM072T09
     K19UH3V 1C2016 09 27.49603302 04 00.32 -03 40 04.9                WEM072T09
     K19UH3V 1C2016 09 27.54391802 04 00.12 -03 40 07.0                WEM072T09
     K19UH3V 1C2016 09 29.44464702 03 52.41 -03 41 22.9                WEM072T09
Observer details:
T09 Subaru Telescope, Maunakea.  Observer .  Measurer S. Deen.  8.3-m Subaru
    Telescope + CCD.
First and last observations above in comparison with prediction:
Residuals in seconds of arc, reference and Delta-T
151010 T09 20.0+  0.7+    160929 T09 14.2+  0.2+    MPO811074   -36.9 days
Orbital elements:
2019 UV173                                                                      
Epoch 2024 Mar. 31.0 TT = JDT 2460400.5                 Alexandersen            
M 356.87075              (2000.0)            P               Q                  
n   0.00134711     Peri.  242.18414     +0.53999738     -0.84059926             
a  81.1958958      Node   174.53186     +0.83916365     +0.54158869             
e   0.5447149      Incl.   26.40378     -0.06486289     +0.00863587             
P 732              H    9.57          G   0.15           U   4                  
Residuals in seconds of arc
151010 T09  0.1+  0.1+    191027 T09  0.1-  0.0     191102 T09  0.1-  0.0
151014 T09  0.1-  0.1+    191027 T09  0.1-  0.2+    191102 T09  0.0   0.1-
160927 T09  0.1-  0.0     191027 T09  0.1-  0.1+    191127 T09  0.1-  0.2-
160927 T09  0.1+  0.0     191027 T09  0.2+  0.1+    191127 T09  0.1+  0.0
160927 T09  0.1+  0.1-    191031 T09  0.1+  0.0     191127 T09  0.0   0.2-
160929 T09  0.0   0.1-    191031 T09  0.2-  0.0     191127 T09  0.2+  0.1+
190929 T09  0.1-  0.3+    191031 T09  0.1+  0.0     191127 T09  0.1+  0.1+
190929 T09  0.1+  0.0     191031 T09  0.2+  0.3-    191222 T09  0.2+  0.0
190929 T09  0.2+  0.0     191101 T09  0.0   0.2+    191222 T09  0.0   0.3-
190929 T09  0.0   0.2+    191101 T09  0.3+  0.2-    191222 T09  0.1+  0.1+
191023 T09  0.1-  0.1-    191101 T09  0.1-  0.1+    191222 T09  0.0   0.1-
191023 T09  0.1-  0.1+    191101 T09  0.0   0.0     191222 T09  0.0   0.1+
191023 T09  0.1-  0.0     191101 T09  0.2+  0.4-    191228 T09  0.2-  0.0
191023 T09  0.2-  0.1+    191101 T09  0.2-  0.1-    191228 T09  0.0   0.1-
191023 T09  0.1+  0.2-    191102 T09  0.2-  0.1+    191228 T09  0.1+  0.0
191023 T09  0.3-  0.2+    191102 T09  0.0   0.1-
Ephemeris:
2019 UV173               a,e,i = 81.20, 0.54, 26                 q = 36.9673
Date    TT    R. A. (2000) Decl.     Delta      r    Elong.  Phase     V
2024 05 28    03 01 41.0 -03 05 48  38.1316 37.2679    31.1     0.8    25.5
...
2024 06 12    03 03 19.6 -03 03 50  38.0038 37.2639    42.7     1.1    25.5
...
2024 06 20    03 04 07.7 -03 03 49  37.9165 37.2618    49.3     1.2    25.5
...
2024 06 26    03 04 41.3 -03 04 16  37.8434 37.2603    54.4     1.3    25.5
2024 06 27    03 04 46.6 -03 04 23  37.8306 37.2600    55.2     1.3    25.5
2024 06 28    03 04 51.9 -03 04 31  37.8177 37.2597    56.1     1.3    25.5
...
2024 07 04    03 05 22.2 -03 05 30  37.7370 37.2582    61.2     1.4    25.5
...
2024 07 12    03 05 58.2 -03 07 26  37.6220 37.2561    68.2     1.5    25.5
...
2024 07 27    03 06 50.7 -03 12 50  37.3904 37.2522    81.4     1.5    25.5
M. P. C. Staff               (C) Copyright 2024 MPC           M.P.E.C. 2024-M72
    
    
More information about the Iaude
mailing list